ATLAS 5 CENTAUR DEB, 43984

Orbit data source: Space-Track

ATLAS 5 CENTAUR DEB, 43984 is space debris in HEO originally from a launch on Wed, 17 Sep 2014 UTC launched from the Air Force Eastern Test Range (AFETR). Debris objects in space refer to the collection of defunct objects orbiting the Earth. Examples of debris include non-operational satellites, rocket bodies, and fragments generated from explosions, collisions, or faulty payload assembly.

Not visible in the next 10 days
Identifier
43984, 2014-055AP
Orbit
HEO
Country
Flag of USUS
Related business
Flag of USUnited Launch Alliance/Lockheed Martin (US)
Manufacturer
Unknown
Mission
Spacecraft
Bus & Motor
Unknown
Mass
Unknown
Launch date (UTC)
2014-09-17 (12 years ago)
Launch vehicle
Unknown
Launch site
Air Force Eastern Test Range (AFETR)
Object type
Payload
Rocket body
Debris
Shape & HBR
Unknown shape, 1.1 m
Radar Cross Section
Small (<0.1 m²)

Expand to show TLE details & history
Last TLE update: 1 day ago

TLE from 1 day ago
0 ATLAS 5 CENTAUR DEB
1 43984U 14055AP  26111.67436986 -.00000148  00000-0  00000-0 0  9997
2 43984  21.0600  99.0376 5114555 243.5667  55.9280  1.91692795 53345
Epoch: 2026-04-21T16:11Z
TLE epoch observation values (Epoch: 2026-04-21T16:11:05.555Z)
Latitude
-0.00004°
Longitude
6.46517°
Altitude
19,764.218 km
Speed
3.992 km/s
True Right ascension
06h 35m 56s
True Declination
0° 00' 00"
Sunlit
Object was in daylight at epoch
Visualization orbit readout
Latitude
Unknown
Longitude
Unknown
Altitude
Unknown
Speed
Unknown
Apparent Right ascension
Unknown
Apparent Declination
Unknown
Sunlit
N/A
Visualization observer readout
Local Sidereal Time
01:30:09
Azimuth
Unknown
Elevation
Unknown
Doppler factor
Unknown
Orbital elements
Apogee altitude
34,998.9 km
Perigee altitude
6,996.073 km
Semi-major axis
27,375.623 km
Eccentricity
0.51146
Inclination
21.06°
RAAN
99.0376°
Arg. of periapsis
243.5667°
True anomaly
116.47903°
Mean anomaly
55.928°
Eccentric anomaly
85.12629°
Mean motion
0.47918 °/min
Orbital period
751.29 mins
BSTAR
0
Loading maneuver chart data...
Computing Atmospheric mass density...

Documentation

Showing up to 5 results
|